Location: Fayetteville
(35.0530°N, 78.8790°W)
Time: 14:27:26
(UTC-05:00)

ISS - Visible Passes

Search period start: 20 December 2014 00:00
Search period end: 30 December 2014 00:00
Orbit: 404 x 414 km, 51.6° (Epoch: 20 December)

Date Brightness Start Highest point End Pass type
(mag) Time Alt. Az. Time Alt. Az. Time Alt. Az.
22 Dec -0.6 18:42:11 10° N 18:42:15 10° N 18:42:15 10° N visible
23 Dec -1.0 17:52:39 10° NNE 17:53:04 10° NNE 17:53:30 10° NNE visible
24 Dec -2.0 18:36:15 10° NNW 18:38:23 27° N 18:38:23 27° N visible
25 Dec -1.7 17:45:42 10° NNW 17:48:08 19° NNE 17:50:22 11° ENE visible
25 Dec -0.9 19:21:43 10° WNW 19:23:11 22° WNW 19:23:11 22° WNW visible
26 Dec -3.4 18:30:35 10° NW 18:33:52 89° SW 18:35:33 26° SE visible
27 Dec -2.9 17:39:39 10° NW 17:42:48 43° NE 17:45:56 10° ESE visible
27 Dec -0.2 19:17:18 10° W 19:19:03 14° SW 19:20:48 10° SSW visible
28 Dec -1.1 18:25:17 10° WNW 18:28:08 28° SW 18:30:58 10° SSE visible
